EW9651 Weather Reports


time (UTC)temp
C
wind
direction
speed
KPH
gust
KPH
rain 1hr
cm
rain 24hr
cm
rain mn
cm
humidity
%
barometer
mb
20260508213804 25 355 4.8 16.1 0.00 0.00 0.00 24 1014.1
20260508213303 25 65 4.8 16.1 0.00 0.00 0.00 25 1014.1
20260508212757 25 19 6.4 17.7 0.00 0.00 0.00 25 1014.2
20260508212250 25 325 6.4 19.3 0.00 0.00 0.00 27 1014.3
20260508211742 25 26 6.4 19.3 0.00 0.00 0.00 24 1014.3
20260508211240 25 13 4.8 14.5 0.00 0.00 0.00 27 1014.3
20260508210739 25 5 3.2 14.5 0.00 0.00 0.00 25 1014.4
20260508210239 25 11 3.2 16.1 0.00 0.00 0.00 24 1014.4
20260508205743 25 103 3.2 16.1 0.00 0.00 0.00 27 1014.4
20260508205310 24 17 6.4 17.7 0.00 0.00 0.00 25 1014.7
20260508205253 25 331 4.8 17.7 0.00 0.00 0.00 27 1014.4
20260508204239 24 355 8.0 24.1 0.00 0.00 0.00 26 1014.7
20260508203744 24 29 6.4 24.1 0.00 0.00 0.00 24 1014.7
20260508203658 24 331 6.4 30.6 0.00 0.00 0.00 26 1014.7
20260508202738 24 5 6.4 30.6 0.00 0.00 0.00 28 1014.8
20260508202241 24 355 4.8 16.1 0.00 0.00 0.00 25 1014.8
20260508201735 24 61 6.4 17.7 0.00 0.00 0.00 26 1014.9
20260508201705 24 355 6.4 17.7 0.00 0.00 0.00 26 1014.9
20260508200735 24 5 6.4 20.9 0.00 0.00 0.00 24 1015.1
20260508200237 24 28 4.8 20.9 0.00 0.00 0.00 25 1015.0
20260508195735 24 26 4.8 14.5 0.00 0.00 0.00 27 1015.1
20260508195239 24 338 4.8 14.5 0.00 0.00 0.00 27 1015.0
20260508194735 23 355 4.8 16.1 0.00 0.00 0.00 26 1015.0
20260508194638 23 323 4.8 16.1 0.00 0.00 0.00 27 1015.0
20260508193737 23 336 4.8 14.5 0.00 0.00 0.00 27 1015.0
20260508193628 23 5 6.4 16.1 0.00 0.00 0.00 25 1015.3
20260508192735 23 56 4.8 16.1 0.00 0.00 0.00 26 1015.1
20260508192235 23 347 4.8 14.5 0.00 0.00 0.00 27 1015.3
20260508191734 23 15 4.8 14.5 0.00 0.00 0.00 27 1015.3
20260508191239 23 5 8.0 24.1 0.00 0.00 0.00 27 1015.4
20260508190737 23 24 6.4 24.1 0.00 0.00 0.00 29 1015.4
20260508190243 23 17 4.8 12.9 0.00 0.00 0.00 30 1015.4
20260508185740 23 337 6.4 14.5 0.00 0.00 0.00 31 1015.5
20260508185234 23 338 6.4 14.5 0.00 0.00 0.00 28 1015.5
20260508185225 23 279 6.4 19.3 0.00 0.00 0.00 32 1015.5
20260508184235 23 302 8.0 19.3 0.00 0.00 0.00 28 1015.5
20260508183732 23 41 4.8 17.7 0.00 0.00 0.00 29 1015.6
20260508183233 23 30 4.8 12.9 0.00 0.00 0.00 30 1015.5
20260508182735 22 5 6.4 12.9 0.00 0.00 0.00 29 1015.6
20260508182233 22 19 4.8 17.7 0.00 0.00 0.00 28 1015.7
20260508181734 23 11 4.8 17.7 0.00 0.00 0.00 27 1015.7
20260508181234 23 335 4.8 27.4 0.00 0.00 0.00 30 1015.7
20260508180729 23 0 6.4 27.4 0.00 0.00 0.00 31 1015.7
20260508180229 22 258 4.8 14.5 0.00 0.00 0.00 29 1015.8
20260508175733 22 22 3.2 14.5 0.00 0.00 0.00 32 1015.8
20260508175227 23 336 3.2 12.9 0.00 0.00 0.00 30 1015.8
20260508175133 22 355 4.8 16.1 0.00 0.00 0.00 31 1015.8
20260508174231 22 66 4.8 16.1 0.00 0.00 0.00 32 1015.9
20260508173727 22 55 3.2 14.5 0.00 0.00 0.00 33 1015.9
20260508173229 22 5 3.2 6.4 0.00 0.00 0.00 34 1015.8
20260508172729 22 314 3.2 8.0 0.00 0.00 0.00 32 1015.8
20260508172229 22 344 3.2 8.0 0.00 0.00 0.00 30 1015.9
20260508172038 23 305 4.8 16.1 0.00 0.00 0.00 31 1015.8
20260508171913 23 5 3.2 8.0 0.00 0.00 0.00 30 1015.8
20260508170740 23 9 6.4 19.3 0.00 0.00 0.00 28 1015.6
20260508170230 23 66 8.0 22.5 0.00 0.00 0.00 28 1015.7
20260508165739 23 51 8.0 22.5 0.00 0.00 0.00 31 1015.6
20260508165335 22 54 4.8 17.7 0.00 0.00 0.00 32 1015.6
20260508165327 22 344 3.2 14.5 0.00 0.00 0.00 35 1015.6
20260508165256 23 36 8.0 19.3 0.00 0.00 0.00 30 1015.6
20260508163728 22 38 3.2 14.5 0.00 0.00 0.00 36 1015.6
20260508163232 22 51 1.6 6.4 0.00 0.00 0.00 36 1015.5
20260508163139 21 355 1.6 6.4 0.00 0.00 0.00 35 1015.5
20260508162224 21 313 1.6 6.4 0.00 0.00 0.00 34 1015.5
20260508161724 21 248 1.6 6.4 0.00 0.00 0.00 36 1015.5
20260508161225 21 292 1.6 8.0 0.00 0.00 0.00 35 1015.4
20260508160722 20 292 1.6 8.0 0.00 0.00 0.00 39 1015.4
20260508160224 20 283 1.6 4.8 0.00 0.00 0.00 38 1015.4
20260508155722 19 283 0.0 3.2 0.00 0.00 0.00 41 1015.3
20260508155225 18 283 0.0 3.2 0.00 0.00 0.00 39 1015.4
20260508154720 18 283 1.6 6.4 0.00 0.00 0.00 40 1015.4
20260508154217 18 283 1.6 6.4 0.00 0.00 0.00 41 1015.3
20260508153721 17 273 0.0 3.2 0.00 0.00 0.00 44 1015.3
20260508153523 16 273 1.6 4.8 0.00 0.00 0.00 44 1015.3
20260508153356 17 273 1.6 4.8 0.00 0.00 0.00 41 1015.3
20260508152901 16 273 1.6 4.8 0.00 0.00 0.00 43 1015.3
20260508151712 16 273 1.6 4.8 0.00 0.00 0.00 45 1015.3
20260508151216 15 135 0.0 3.2 0.00 0.00 0.00 48 1015.1
20260508150713 15 135 0.0 3.2 0.00 0.00 0.00 48 1015.1
20260508150205 15 135 0.0 3.2 0.00 0.00 0.00 47 1015.0
20260508145702 15 135 0.0 1.6 0.00 0.00 0.00 45 1015.0
20260508145205 15 135 1.6 6.4 0.00 0.00 0.00 45 1015.0
20260508145058 15 135 3.2 6.4 0.00 0.00 0.00 47 1015.0
20260508144208 14 92 1.6 4.8 0.00 0.00 0.00 47 1015.0
20260508143701 14 92 1.6 6.4 0.00 0.00 0.00 49 1015.0
20260508143201 13 92 3.2 6.4 0.00 0.00 0.00 50 1015.0
20260508142704 13 92 3.2 6.4 0.00 0.00 0.00 52 1015.0
20260508142202 13 78 3.2 6.4 0.00 0.00 0.00 53 1015.0
20260508141705 12 96 3.2 6.4 0.00 0.00 0.00 54 1014.9
20260508141201 12 108 3.2 6.4 0.00 0.00 0.00 55 1014.9
20260508140700 12 108 4.8 8.0 0.00 0.00 0.00 57 1014.9
20260508140637 11 108 3.2 8.0 0.00 0.00 0.00 58 1014.9
20260508135700 11 111 1.6 4.8 0.00 0.00 0.00 62 1014.8
20260508135206 11 111 1.6 4.8 0.00 0.00 0.00 64 1014.8
20260508134702 10 111 1.6 3.2 0.00 0.00 0.00 65 1014.8
20260508134158 10 111 1.6 3.2 0.00 0.00 0.00 64 1014.8
20260508133657 10 111 1.6 3.2 0.00 0.00 0.00 63 1014.7
20260508133159 10 111 3.2 6.4 0.00 0.00 0.00 64 1014.7
20260508132652 10 111 3.2 6.4 0.00 0.00 0.00 64 1014.7
20260508132151 9 111 3.2 6.4 0.00 0.00 0.00 63 1014.6
20260508131652 9 105 3.2 6.4 0.00 0.00 0.00 65 1014.7
20260508131610 9 105 4.8 6.4 0.00 0.00 0.00 64 1014.6
20260508130640 9 267 3.2 4.8 0.00 0.00 0.00 64 1014.4
20260508130137 9 267 1.6 4.8 0.00 0.00 0.00 63 1014.4
20260508125732 10 121 3.2 4.8 0.00 0.00 0.00 61 1014.0
20260508125728 10 267 3.2 4.8 0.00 0.00 0.00 62 1014.2
20260508125657 9 267 0.0 3.2 0.00 0.00 0.00 63 1014.4
20260508125141 9 267 1.6 4.8 0.00 0.00 0.00 62 1014.3
20260508123639 10 121 3.2 9.7 0.00 0.00 0.00 62 1014.0
20260508123134 10 121 4.8 9.7 0.00 0.00 0.00 60 1014.0
20260508122634 10 121 4.8 6.4 0.00 0.00 0.00 61 1014.0
20260508122136 10 121 4.8 6.4 0.00 0.00 0.00 59 1013.9
20260508122049 10 121 4.8 6.4 0.00 0.00 0.00 59 1013.9
20260508121558 9 121 4.8 6.4 0.00 0.00 0.00 60 1013.9
20260508121132 10 121 4.8 6.4 0.00 0.00 0.00 59 1013.8
20260508120129 9 83 4.8 6.4 0.00 0.00 0.00 61 1013.9
20260508115634 10 71 4.8 6.4 0.00 0.00 0.00 62 1013.9
20260508115133 10 71 3.2 6.4 0.00 0.00 0.00 62 1013.9
20260508114629 10 71 4.8 6.4 0.00 0.00 0.00 61 1013.8
20260508114529 10 71 4.8 6.4 0.00 0.00 0.00 61 1013.8
20260508113630 10 96 4.8 9.7 0.00 0.00 0.00 61 1013.8
20260508113132 10 96 4.8 9.7 0.00 0.00 0.00 61 1013.8
20260508112632 10 96 4.8 9.7 0.00 0.00 0.00 62 1013.6
20260508112129 10 85 4.8 9.7 0.00 0.00 0.00 63 1013.6
20260508111634 10 85 4.8 6.4 0.00 0.00 0.00 62 1013.6
20260508111137 10 85 4.8 6.4 0.00 0.00 0.00 63 1013.5
20260508111044 10 85 4.8 6.4 0.00 0.00 0.00 62 1013.5
20260508110129 10 85 3.2 4.8 0.00 0.00 0.00 63 1013.5
20260508105630 10 85 3.2 6.4 0.00 0.00 0.00 62 1013.5
20260508105133 10 85 3.2 6.4 0.00 0.00 0.00 61 1013.4
20260508104629 10 85 1.6 4.8 0.00 0.00 0.00 60 1013.5
20260508104128 10 85 3.2 6.4 0.00 0.00 0.00 61 1013.4
20260508103631 10 85 4.8 6.4 0.00 0.00 0.00 60 1013.4
20260508103133 10 85 4.8 6.4 0.00 0.00 0.00 60 1013.4
20260508102634 10 85 3.2 6.4 0.00 0.00 0.00 60 1013.4
20260508102626 10 85 3.2 6.4 0.00 0.00 0.00 60 1013.4
20260508101631 10 85 3.2 6.4 0.00 0.00 0.00 60 1013.4
20260508101132 10 85 3.2 4.8 0.00 0.00 0.00 59 1013.4
20260508100633 10 85 3.2 4.8 0.00 0.00 0.00 59 1013.3
20260508100129 10 85 3.2 6.4 0.00 0.00 0.00 59 1013.3
20260508095634 10 85 1.6 6.4 0.00 0.00 0.00 59 1013.3
20260508095540 10 85 1.6 4.8 0.00 0.00 0.00 59 1013.3
20260508095105 10 85 3.2 6.4 0.00 0.00 0.00 58 1013.2
20260508094128 10 85 3.2 6.4 0.00 0.00 0.00 58 1013.2
20260508094108 10 85 3.2 6.4 0.00 0.00 0.00 58 1013.2
20260508093132 10 85 3.2 6.4 0.00 0.00 0.00 57 1013.2
20260508092630 10 85 3.2 6.4 0.00 0.00 0.00 57 1013.1
20260508092132 10 85 3.2 6.4 0.00 0.00 0.00 59 1013.1
20260508091630 11 85 3.2 9.7 0.00 0.00 0.00 58 1013.1
20260508091532 11 85 6.4 9.7 0.00 0.00 0.00 57 1013.1
20260508091323 11 85 4.8 9.7 0.00 0.00 0.00 58 1013.1
20260508090605 11 85 4.8 9.7 0.00 0.00 0.00 57 1013.1
20260508085630 11 85 4.8 8.0 0.00 0.00 0.00 57 1013.1
20260508085130 11 85 4.8 9.7 0.00 0.00 0.00 57 1013.1
20260508084637 11 85 4.8 9.7 0.00 0.00 0.00 56 1013.1
20260508084133 11 85 4.8 9.7 0.00 0.00 0.00 55 1013.2
20260508083635 11 85 4.8 9.7 0.00 0.00 0.00 55 1013.2
20260508083559 11 85 4.8 9.7 0.00 0.00 0.00 54 1013.2
20260508082629 11 85 4.8 9.7 0.00 0.00 0.00 54 1013.2
20260508082529 11 85 4.8 9.7 0.00 0.00 0.00 54 1013.2
20260508081628 11 85 4.8 9.7 0.00 0.00 0.00 54 1013.1
20260508081131 11 85 4.8 6.4 0.00 0.00 0.00 54 1013.1
20260508081102 11 85 4.8 4.8 0.00 0.00 0.00 54 1013.1
20260508080135 11 85 4.8 6.4 0.00 0.00 0.00 54 1013.1
20260508080127 11 85 3.2 6.4 0.00 0.00 0.00 54 1013.0
20260508075536 11 67 3.2 6.4 0.00 0.00 0.00 53 1013.1
20260508074632 11 60 3.2 6.4 0.00 0.00 0.00 53 1013.1
20260508074130 12 60 1.6 6.4 0.00 0.00 0.00 52 1013.1
20260508073626 12 60 1.6 4.8 0.00 0.00 0.00 53 1013.0
20260508073130 12 60 1.6 3.2 0.00 0.00 0.00 53 1013.0
20260508073050 12 60 3.2 4.8 0.00 0.00 0.00 51 1013.0
20260508072630 12 60 1.6 4.8 0.00 0.00 0.00 53 1013.0
20260508071622 12 49 1.6 4.8 0.00 0.00 0.00 51 1013.0
20260508071122 12 49 0.0 3.2 0.00 0.00 0.00 49 1013.0
20260508070625 13 49 0.0 1.6 0.00 0.00 0.00 48 1013.1
20260508070122 13 49 0.0 3.2 0.00 0.00 0.00 49 1013.1
20260508065622 13 49 0.0 3.2 0.00 0.00 0.00 48 1013.0
20260508065557 13 49 3.2 6.4 0.00 0.00 0.00 49 1013.0
20260508064621 13 90 4.8 9.7 0.00 0.00 0.00 46 1012.8
20260508064447 13 102 4.8 9.7 0.00 0.00 0.00 47 1013.0
20260508064301 13 105 4.8 9.7 0.00 0.00 0.00 47 1013.0
20260508063122 13 106 6.4 9.7 0.00 0.00 0.00 48 1013.1
20260508062624 13 84 4.8 9.7 0.00 0.00 0.00 48 1012.8
20260508062121 13 90 4.8 9.7 0.00 0.00 0.00 48 1012.8
20260508061624 13 88 4.8 8.0 0.00 0.00 0.00 48 1013.0
20260508061552 13 85 4.8 9.7 0.00 0.00 0.00 50 1012.8
20260508060624 13 85 4.8 9.7 0.00 0.00 0.00 50 1012.8
20260508060121 13 221 4.8 6.4 0.00 0.00 0.00 48 1012.8
20260508055622 13 221 3.2 4.8 0.00 0.00 0.00 47 1012.7
20260508055123 13 221 3.2 4.8 0.00 0.00 0.00 47 1012.7
20260508054625 13 221 3.2 4.8 0.00 0.00 0.00 46 1012.6
20260508054120 14 221 3.2 6.4 0.00 0.00 0.00 46 1012.5
20260508054101 14 221 4.8 6.4 0.00 0.00 0.00 47 1012.4
20260508053134 14 221 3.2 6.4 0.00 0.00 0.00 46 1012.4
20260508052633 14 221 3.2 6.4 0.00 0.00 0.00 47 1012.4
20260508052121 15 221 4.8 6.4 0.00 0.00 0.00 45 1012.4
20260508051619 15 221 4.8 6.4 0.00 0.00 0.00 45 1012.4
20260508051503 15 221 3.2 6.4 0.00 0.00 0.00 43 1012.4
20260508051316 15 221 4.8 6.4 0.00 0.00 0.00 43 1012.4
20260508050111 15 221 3.2 4.8 0.00 0.00 0.00 42 1012.4
20260508045609 15 221 3.2 4.8 0.00 0.00 0.00 41 1012.4
20260508045109 16 221 4.8 6.4 0.00 0.00 0.00 41 1012.5
20260508044612 16 221 3.2 6.4 0.00 0.00 0.00 40 1012.4
20260508044108 16 221 3.2 4.8 0.00 0.00 0.00 40 1012.5
20260508043610 16 221 3.2 4.8 0.00 0.00 0.00 40 1012.5
20260508043101 16 221 3.2 6.4 0.00 0.00 0.00 40 1012.5
20260508042605 16 221 3.2 6.4 0.00 0.00 0.00 39 1012.5
20260508042106 16 221 3.2 6.4 0.00 0.00 0.00 39 1012.6
20260508041602 16 221 1.6 3.2 0.00 0.00 0.00 38 1012.4
20260508041104 16 221 1.6 3.2 0.00 0.00 0.00 39 1012.4
20260508040602 16 221 1.6 4.8 0.00 0.00 0.00 38 1012.4
20260508035604 17 221 1.6 4.8 0.00 0.00 0.00 40 1012.3
20260508035100 17 221 3.2 8.0 0.00 0.00 0.00 35 1012.3
20260508034553 17 205 3.2 8.0 0.00 0.00 0.00 36 1012.2
20260508034045 17 68 1.6 6.4 0.00 0.00 0.00 35 1012.0
20260508033543 18 68 3.2 6.4 0.00 0.00 0.00 35 1012.2
20260508033042 18 31 4.8 9.7 0.00 0.00 0.00 35 1012.0
20260508032544 18 73 6.4 11.3 0.00 0.00 0.00 33 1012.0
20260508032046 18 94 8.0 14.5 0.00 0.00 0.00 33 1012.0
20260508031537 18 78 8.0 14.5 0.00 0.00 0.00 33 1012.0
20260508031433 18 91 6.4 14.5 0.00 0.00 0.00 32 1011.9
20260508030539 19 97 4.8 9.7 0.00 0.00 0.00 32 1011.8
20260508030033 19 90 4.8 9.7 0.00 0.00 0.00 31 1011.8
20260508030020 20 73 4.8 6.4 0.00 0.00 0.00 30 1011.8
20260508025030 20 76 4.8 8.0 0.00 0.00 0.00 30 1011.8
20260508024534 20 76 4.8 8.0 0.00 0.00 0.00 29 1011.8
20260508024032 20 61 3.2 4.8 0.00 0.00 0.00 29 1011.8
20260508023529 21 51 1.6 3.2 0.00 0.00 0.00 29 1011.8
20260508023033 21 51 1.6 3.2 0.00 0.00 0.00 27 1011.7
20260508022529 21 51 1.6 8.0 0.00 0.00 0.00 27 1011.7
20260508022345 22 48 3.2 6.4 0.00 0.00 0.00 29 1011.6
20260508022215 21 51 3.2 8.0 0.00 0.00 0.00 27 1011.7
20260508021029 22 71 1.6 4.8 0.00 0.00 0.00 29 1011.5
20260508020923 22 71 1.6 4.8 0.00 0.00 0.00 26 1011.5
20260508020030 22 71 1.6 4.8 0.00 0.00 0.00 29 1011.5
20260508015530 22 71 0.0 3.2 0.00 0.00 0.00 33 1011.5
20260508015029 22 71 1.6 3.2 0.00 0.00 0.00 25 1011.5
20260508014529 22 71 0.0 3.2 0.00 0.00 0.00 24 1011.5
20260508014030 22 71 1.6 11.3 0.00 0.00 0.00 26 1011.5
20260508013529 22 71 3.2 11.3 0.00 0.00 0.00 25 1011.5
20260508013032 22 117 3.2 8.0 0.00 0.00 0.00 28 1011.5
20260508012529 22 44 4.8 12.9 0.00 0.00 0.00 28 1011.5
20260508012030 22 76 6.4 12.9 0.00 0.00 0.00 24 1011.5
20260508011532 22 86 6.4 14.5 0.00 0.00 0.00 27 1011.5
20260508011030 22 49 6.4 14.5 0.00 0.00 0.00 26 1011.5
20260508010529 22 39 6.4 9.7 0.00 0.00 0.00 27 1011.6
20260508010019 22 62 6.4 12.9 0.00 0.00 0.00 29 1011.6
20260508005520 22 84 6.4 12.9 0.00 0.00 0.00 26 1011.6
20260508005022 22 67 6.4 11.3 0.00 0.00 0.00 27 1011.7
20260508004522 22 121 4.8 11.3 0.00 0.00 0.00 26 1011.8
20260508004101 22 84 4.8 11.3 0.00 0.00 0.00 26 1011.8
20260508004037 22 77 4.8 11.3 0.00 0.00 0.00 27 1011.8
20260508003027 22 75 3.2 4.8 0.00 0.00 0.00 27 1011.8
20260508002524 22 58 3.2 11.3 0.00 0.00 0.00 31 1011.9
20260508002020 22 41 4.8 11.3 0.00 0.00 0.00 29 1011.9
20260508001520 23 68 6.4 14.5 0.00 0.00 0.00 27 1011.9
20260508001017 23 59 4.8 14.5 0.00 0.00 0.00 26 1011.9
20260508000519 23 76 4.8 14.5 0.00 0.00 0.00 28 1012.0
20260508000020 23 83 3.2 14.5 0.00 0.00 0.00 26 1012.0
20260507235520 23 140 1.6 6.4 0.00 0.00 0.00 31 1012.2
20260507235017 23 140 3.2 11.3 0.00 0.00 0.00 25 1012.2
20260507234519 23 87 3.2 11.3 0.00 0.00 0.00 25 1012.3
20260507234015 23 115 3.2 14.5 0.00 0.00 0.00 29 1012.3
20260507233516 23 328 6.4 17.7 0.00 0.00 0.00 27 1012.4
20260507233049 23 92 3.2 12.9 0.00 0.00 0.00 28 1012.4
20260507233034 23 69 6.4 17.7 0.00 0.00 0.00 29 1012.3
20260507232016 23 79 1.6 12.9 0.00 0.00 0.00 26 1012.4
20260507231517 23 0 3.2 8.0 0.00 0.00 0.00 29 1012.6
20260507231432 23 12 4.8 16.1 0.00 0.00 0.00 29 1012.6
20260507230512 23 355 4.8 16.1 0.00 0.00 0.00 28 1012.7
20260507230012 23 53 3.2 11.3 0.00 0.00 0.00 29 1012.7
20260507225512 23 0 3.2 6.4 0.00 0.00 0.00 29 1012.8
20260507225015 23 329 3.2 8.0 0.00 0.00 0.00 29 1012.8
20260507224543 24 348 9.7 19.3 0.00 0.00 0.00 27 1013.1
20260507224523 24 314 4.8 16.1 0.00 0.00 0.00 28 1012.8
20260507223957 24 40 8.0 19.3 0.00 0.00 0.00 24 1013.0
20260507223014 25 51 4.8 19.3 0.00 0.00 0.00 26 1013.1
20260507222510 25 125 3.2 16.1 0.00 0.00 0.00 25 1013.2
20260507222006 24 50 3.2 16.1 0.00 0.00 0.00 25 1013.3
20260507221506 24 0 3.2 6.4 0.00 0.00 0.00 27 1013.2
20260507221010 24 68 3.2 6.4 0.00 0.00 0.00 27 1013.3
20260507220504 23 42 3.2 9.7 0.00 0.00 0.00 27 1013.3
20260507220004 24 355 3.2 11.3 0.00 0.00 0.00 28 1013.4
20260507215601 23 342 4.8 12.9 0.00 0.00 0.00 30 1013.5
20260507215531 24 5 3.2 12.9 0.00 0.00 0.00 28 1013.4
20260507214505 23 312 3.2 17.7 0.00 0.00 0.00 28 1013.6